Tracking 30995 objects as of 5-Jul-2025
HD Live streaming from Space Station
objects crossing your sky now

MOLNIYA 1-52

Track MOLNIYA 1-52 now!
MOLNIYA 1-52 is classified as:


NORAD ID: 13012
Int'l Code: 1981-123A
Perigee: 815.3 km
Apogee: 39,582.2 km
Inclination: 61.5 °
Period: 718.4 minutes
Semi major axis: 26569 km
RCS: 16.6943 m2 (large)
Launch date: December 23, 1981
Source: Commonwealth of Independent States (former USSR) (CIS)
Launch site: TYURATAM MISSILE AND SPACE COMPLEX (TTMTR)
Your satellite tracking list
STARLINK-4148
Track 1 satellite(s)




NASA's NSSDC Master Catalog

Two Line Element Set (TLE):
1 13012U 81123A   25185.93082869  .00001447  00000-0  31061-2 0  9997
2 13012  61.4688 122.9312 7295299 269.9587  14.6154  2.00457007318919
Source of the keplerian elements: AFSPC